Location: Nairn
(57.5833°N, 3.8667°W)
Time: 20:58:09
(UTC+00:00)

Altair - Pass Details

Date: 11 October 2022
Orbit: 1501 x 1682 km, 47.2° (Epoch: 05 December)

Event Time Altitude Azimuth Distance (km) Brightness Sun altitude
Exits shadow 03:21:52 24° 185° (S) 2,840 8.5 -26.5°
Maximum altitude 03:25:44 32° 149° (SSE) 2,511 8.5 -26.0°
Drops below altitude 10° 03:34:02 10° 92° (E) 3,895 10.4 -25.1°
Sets 03:37:38 0° 83° (E) 4,905 11.3 -24.6°
